Location: *
(55.6049°S, 142.1985°W)
Time: 14:31:31
(UTC+00:00)

Cosmos 2227 - Pass Details

Date: 12 May 2021
Orbit: 836 x 860 km, 71.0° (Epoch: 17 June)

Event Time Altitude Azimuth Distance (km) Brightness Sun altitude
Rises 16:20:59 0° 331° (NNW) 3,395 7.3 -7.5°
Reaches altitude 10° 16:23:24 10° 331° (NNW) 2,469 6.6 -7.1°
Maximum altitude 16:29:05 85° 58° (ENE) 865 4.4 -6.4°
Drops below altitude 10° 16:34:52 10° 145° (SE) 2,508 6.8 -5.7°
Sets 16:37:21 0° 145° (SE) 3,452 7.5 -5.3°
